Weather in Bulynino

Russia / Pskov Oblast     56°16′58″N   30°31′36″E
В апреле 2022 года жителям России запретили посещать сайт meteo.paraplan.net по решению Генеральной прокуратуры. Аудитория сайта уменьшилась в 10 раз. Владельцы сайта не видят смысла в поддержке погодного сервера в таких условиях. Сайт будет закрыт в октябре.
temp.,
°C
wind,
m/s
gust,
m/s
humid.,
%
clouds,
%
prec.,
mm/h
press.,
hPa
HPBL,
m
4 october, tue
tue400:00+6e2493100 0.1 993191
03:00+5ese3394100 0.6 994749
06:00+4ene2297100 0.1 996635
09:00+4n1192100 0.4 998424
12:00+5wnw1288100 0.2 1000520
15:00+6wnw2384100 0.3 1002599
18:00+5n1188100 0.1 100446
21:00+5nw1193100 0.4 100666
5 october, wed
wed500:00+5wnw499195 0.6 1008768
03:00+5wnw4894100 1.0 1009868
06:00+5w1497100 1.4 1011283
09:00+6w4109183 1.6 1012512
12:00+8wnw4881100 0.0 1014716
15:00+11w4770100 0.0 10141002
18:00+8wsw3796100 0.9 1016361
21:00+8sw3797100 1.2 1016343
6 october, thu
thu600:00+9sw2798100 0.1 1016219
03:00+9sw3798100 0.2 1016185
06:00+9ssw3796100 0.1 1015209
09:00+10sw4109333 0.1 1015312
12:00+14sw59760 0.0 1014520
15:00+16sw510682 0.0 1013776
18:00+14sw5127768 0.0 1014525
21:00+14wsw61281100 0.0 1014828
7 october, fri
fri700:00+11w5138725 0.2 1018745
03:00+9w5128947 0.2 1019636
06:00+11w5107332 0.0 10211011
09:00+11w61277100 0.0 10221151
12:00+12wsw5107113 0.1 10231163
15:00+15wsw58611 0.1 10231305
18:00+11sw38776 0.0 1023217
21:00+10sw411870 0.0 1024379
8 october, sat
sat800:00+8ssw3993100 0.0 1024220
03:00+8ssw4109467 0.0 1022269
06:00+7ssw4129374 0.0 1021302
09:00+8ssw5138599 0.0 1020493
12:00+12ssw61370100 0.0 1018852
15:00+14ssw7136399 0.0 10141139
18:00+12ssw61370100 0.1 1013966
21:00+11ssw513845 0.4 1013619